Rbgn^[z[y[W
メイン
   新天体発見情報
     Comet C/2020 Q2 (PANSTARRS)
投稿するにはまず登録を

スレッド表示 | 新しいものから 前のトピック | 次のトピック | 下へ
投稿者 スレッド
佐藤裕久
投稿日時: 2020-8-31 22:44
モデレータ
登録日: 2005-6-12
居住地: 日本
投稿: 2505
オンライン
Comet C/2020 Q2 (PANSTARRS)

R. Weryk (ハワイ大学, 天文学研究所)の通報によると、8月22日UT、HaleakalaにあるPan-STARRS1
1.8-m Ritchey-Chretien反射望遠鏡で得た画像から彗星を発見した。
4枚の45秒w-バンド画像では、半値全幅(FWHM)が1".4のシーイングで 2".3の拡散したコマが見え、
p.a. 250°に向かって6"の真直ぐな尾がある。8月23日に得た4枚の45秒w-バンド画像では、FWHMが
1".1のシーイングで、1".9 の拡散したコマが見え、p.a. 250°に向かって5"の真直ぐな尾がある。
Werykによって、2020年7月29.5日から8月17.4日UTの7夜のPan-STARRS1と Pan-STARRS2の発見前観測
が確認された。

彗星機能の報告は次の通り:

OC   Date        Reporter           Coma    Tail    PA          Exposures
F51  2020-07-20  R. Weryk           0".69     5"    250           4x45s
F51  2020-08-12  R. Weryk           0".78     5"    250           4x45s
F51  2020-08-23  R. Weryk           0".76     5"    250           4x45s

発見位置は次のとおり、

     2020 UT             R.A. (2000) Decl.       Mag.
     Aug. 22.40223   21 04 55.17   -13 50 31.9   21.0
          22.41466   21 04 54.86   -13 50 33.3   21.7
          22.42701   21 04 54.61   -13 50 34.6   21.3
          22.43934   21 04 54.34   -13 50 36.4   21.7
          23.44025   21 04 32.64   -13 52 39.2   21.5
          23.45442   21 04 32.32   -13 52 41.0   21.1
          23.46900   21 04 32.00   -13 52 42.8   21.6

MPCの楕円軌道要素、位置推算表は次のとおり、

Orbital elements:
    C/2020 Q2 (PANSTARRS)                                                       
T 2020 Feb. 12.37036 TT                                 Rudenko                 
q   5.4071100            (2000.0)            P               Q                  
n   0.02739122     Peri.  119.06322     +0.48478128     +0.87463542             
a  10.8992122      Node   179.93482     -0.82120724     +0.45519367             
e   0.5038990      Incl.    3.31131     -0.30100796     +0.16676814             
P  36.0                                                                         
From 34 observations 2020 June 29-Aug. 25.                                      
                                                                                
Ephemeris:
Date    TT    R. A. (2000) Decl.     Delta      r    Elong.  Phase   m1
2020 07 28    21 14 48.1 -12 58 00   4.4809  5.4771   167.6     2.3  21.2
...
2020 08 12    21 08 53.7 -13 28 42   4.4797  5.4901   175.2     0.9  21.2
...
2020 08 20    21 05 48.3 -13 45 32   4.5057  5.4975   167.4     2.3  21.2
...
2020 08 26    21 03 38.7 -13 57 48   4.5373  5.5032   161.1     3.4  21.2
2020 08 27    21 03 18.2 -13 59 47   4.5435  5.5042   160.1     3.6  21.2
2020 08 28    21 02 58.0 -14 01 46   4.5501  5.5052   159.0     3.8  21.2
...
2020 09 03    21 01 05.4 -14 13 06   4.5947  5.5111   152.8     4.8  21.2
...
2020 09 11    20 59 01.2 -14 26 40   4.6685  5.5193   144.5     6.1  21.3
...
2020 09 26    20 56 47.2 -14 45 50   4.8458  5.5355   129.3     8.1  21.4

(MPEC 2020-Q204、CBET 4839)

スレッド表示 | 新しいものから 前のトピック | 次のトピック | トップ

投稿するにはまず登録を
 
© 1999 Tsutomu Seki.